CZ-6A DEB

Satellite information

Favourite Embed

Satellite Type and Status

DEBRISIN ORBIT

Key statistics

Satellite CZ-6A DEB at a glance.

Uptime

495

Days in orbit

Revolutions

≈ 14.8

Per day

Orbit

LEO

Low Earth Orbit

Inclination

89.1

Latest

Satellite identification and parameters

Extended collection of information and parameters for CZ-6A DEB.

Object identification

Identified? True

Debris? True

Object name: CZ-6A DEB

International designator: 2024-140YT

Object number (NORAD): 61426

Object ID (CCSDS): 61426

Country: PEOPLES REPUBLIC OF CHINA (PRC)

Current information (Y/N): Y

RCS size: SMALL

Orbital parameters

Period: 97.434 minutes

Inclination: 89.1221 deg

SMA: 7014.028 km

Apoapsis: 733.092 km

Periapsis: 538.694 km

RAAN: 298.7517 deg

Eccentricy: 0.01385781

Argument of periapsis: 134.593 deg

Mean anomaly: 226.6702 deg

Mean motion: 14.77922012 rev/day

Mean motion (dot): 0.0001415 rev/day2

B* drag term: 0.0016692316 1/REarth

Two-line elements (TLE)

Creation date: Dec. 12, 2025, 10:14 a.m.

Reference frame: TEME

Reference center: EARTH

Epoch: Dec. 12, 2025, 7:01 a.m. UTC

TLE line 0: 0 CZ-6A DEB

TLE line 1: 1 61426U 24140YT 25346.29297574 .00014150 00000-0 16692-2 0 9992

TLE line 2: 2 61426 89.1221 298.7517 0138578 134.5930 226.6702 14.77922012 70153

Live tracking on map

Real-time ground track for satellite CZ-6A DEB.

In-orbit conjunctions

A list of the most updated potential collisions computed for object CZ-6A DEB.

Target Orbit TCA Probability of collision Miss distance Type
NOAA 16 DEB SSO 2025-12-02 05:07:45 0.000162479 28.0 (m) DEBRIS
COSMOS 2251 DEB LEO 2025-08-19 15:04:27 0.0007451406 86.0 (m) DEBRIS
DMSP 5D-2 F11 DEB SSO 2025-02-21 18:22:47 0.0001556671 973.0 (m) DEBRIS
FENGYUN 1C DEB SSO 2025-01-21 14:50:05 0.0001861375 628.0 (m) DEBRIS
CZ-6A DEB LEO 2024-12-23 09:07:55 0.0001193165 821.0 (m) DEBRIS

Associated space launch

18 Low Earth Orbit communication satellites with Ku, Q and V band payloads for the G60 constellation operated by Shanghai Spacecom Satellite Technology (SSST) with funding backed by the Shanghai local government. Initial constellation will consist of 1296 satellites by 2027 with long term plans to expand it to 12000 satellites.

CZ-6A DEB was lifted into orbit during the mission ‘Long March 6A | G60 Polar Group 01’, on board a Long March 6A space rocket.

The launch took place on Aug. 6, 2024, 6:42 a.m. from Launch Complex 9A.

For more information about the launch, click the button.

Launch to space Long March 6A | G60 Polar Group 01
Long March 6A | G60 Polar Group 01

Agency: N/A

Status: Launch Successful

Launch date: Aug. 6, 2024, 6:42 a.m. UTC

Rocket: Long March 6A

Launch pad: Launch Complex 9A

Location: Taiyuan Satellite Launch Center, People's Republic of China

...

Latest news about this satellite

News about space launch
Brightness of first Chinese broadband constellation satellites alarms astronomers

The first satellites of a Chinese broadband constellation are significantly brighter than those of Western systems, posing a new challenge for astronomers.

News about space launch
Chinese rocket stage breaks up into cloud of more than 700 pieces of space debris

HELSINKI — A Chinese Long March 6A rocket’s upper stage has fragmented into a cloud of over 700 pieces of space debris, adding to concerns about long-term orbital safety. China […]

News about space launch
China's Thousand Sails Megaconstellation Kicks Off with Dangerous Debris Field

China's Thousand Sails Megaconstellation Kicks Off with Dangerous Debris Field


Newsletter sign-up

Weekly statistics, charts and insights to help you stay on top of the space industry.